Location: Berlin
(52.5171°N, 13.4421°E)
Time: 08:49:45
(UTC+01:00)

ISS - Visible Passes

Search period start: 10 December 2025 00:00
Search period end: 20 December 2025 00:00
Orbit: 416 x 420 km, 51.6° (Epoch: 09 December)

Date Brightness Start Highest point End Pass type
(mag) Time Alt. Az. Time Alt. Az. Time Alt. Az.
11 Dec -0.3 07:16:00 10° SSE 07:17:30 13° SE 07:19:01 10° ESE visible
13 Dec -1.2 07:15:13 10° SSW 07:18:00 24° SSE 07:20:48 10° E visible
14 Dec -0.8 06:27:53 10° S 06:30:12 17° SE 06:32:31 10° E visible
15 Dec -0.6 05:41:01 10° SSE 05:42:26 12° SE 05:43:51 10° ESE visible
15 Dec -2.4 07:15:20 10° SW 07:18:33 42° SSE 07:21:46 10° E visible
16 Dec -2.0 06:27:35 10° SW 06:30:37 32° SSE 06:33:40 10° E visible
17 Dec -1.6 05:41:17 18° S 05:42:42 23° SSE 05:45:28 10° E visible
17 Dec -3.3 07:15:45 10° WSW 07:19:06 64° SSE 07:22:28 10° E visible
18 Dec -0.9 04:55:37 16° SE 04:55:37 16° SE 04:57:04 10° E visible
18 Dec -3.1 06:28:34 16° SW 06:31:04 52° SSE 06:34:22 10° E visible
19 Dec -2.8 05:42:43 40° S 05:43:01 41° SSE 05:46:14 10° E visible
19 Dec -3.6 07:16:15 10° W 07:19:37 78° S 07:23:00 10° E visible
